Change the Weather History Date:

Friday, December 20, 2013

  Actual Average Record
Temperature  
Mean Temperature 1 °F 18 °F  
Max Temperature 9 °F 28 °F 65 °F (1894)
Min Temperature -8 °F 8 °F -26 °F (1916)
Degree Days  
Heating Degree Days 64 47  
Month to date heating degree days 1048 891  
Since 1 July heating degree days 2685 2593  
Cooling Degree Days 0 0  
Month to date cooling degree days 0 0  
Year to date cooling degree days 848 742  
Moisture  
Dew Point -3 °F    
Average Humidity 77    
Maximum Humidity 87    
Minimum Humidity 57    
Precipitation  
Precipitation 0.02 in 0.02 in 0.95 in (1902)
Month to date precipitation 0.65 0.34  
Year to date precipitation 24.83 22.72  
Snow  
Snow 0.40 in 0.30 in 5.60 in (2010)
Month to date snowfall 8.0 5.2  
Since 1 July snowfall 10.5 13.5  
Snow Depth 3.00 in    
Sea Level Pressure  
Sea Level Pressure 30.05 in    
Wind  
Wind Speed 7 mph (NNW)    
Max Wind Speed 15 mph    
Max Gust Speed 18 mph    
Visibility 9 miles    
Events Snow    
T = Trace of Precipitation, MM = Missing Value Source: NWS Daily Summary

Daily Weather History Graph

Daily Weather History Graph

Search for Another Location

Airport or City:

Trip Planner

Search our weather history database for the weather conditions in past years. The results will help you decide how hot, cold, wet, or windy it might be!

Date:

Astronomy

Dec. 20, 2013 Rise Set
Actual Time 8:05 AM CST 4:56 PM CST
Civil Twilight 7:32 AM CST 5:29 PM CST
Nautical Twilight 6:55 AM CST 6:06 PM CST
Astronomical Twilight 6:19 AM CST 6:41 PM CST
Moon 8:24 PM CST (12/20) 9:54 AM CST (12/20)
Length of Visible Light 9h 57m
Length of Day
8h 50m
Waning Gibbous, 90% of the Moon is Illuminated
Dec 20
Waning Gibbous
Dec 25
Last Quarter
Jan 1
New
Jan 7
First Quarter
Jan 15
Full

Hourly Weather History & Observations

Time (CST) Temp. Windchill Dew Point Humidity Pressure Visibility Wind Dir Wind Speed Gust Speed Precip Events Conditions
12:55 AM 3.9 °F -13.0 °F -0.0 °F 84% 30.17 in 5.0 mi North 12.7 mph - 0.00 in Snow Light Snow
1:55 AM 3.9 °F -9.4 °F -0.0 °F 84% 30.16 in 7.0 mi North 8.1 mph - 0.00 in Snow Light Snow
2:55 AM 1.9 °F -14.7 °F -2.0 °F 83% 30.17 in 8.0 mi NNW 11.5 mph - 0.00 in Snow Light Snow
3:55 AM -0.9 °F -16.4 °F -5.1 °F 83% 30.18 in 10.0 mi NNW 9.2 mph - N/A   Clear
4:41 AM 1.4 °F -15.3 °F -2.2 °F 85% 30.07 in 10.0 mi NNW 11.5 mph - N/A   Overcast
4:55 AM 1.9 °F -15.5 °F -2.9 °F 80% 30.17 in 10.0 mi NNW 12.7 mph - N/A   Overcast
5:55 AM 1.9 °F -12.9 °F -2.9 °F 80% 30.16 in 10.0 mi NNW 9.2 mph - N/A   Overcast
6:55 AM -0.0 °F -13.0 °F -4.0 °F 83% 30.16 in 9.0 mi NNW 6.9 mph - N/A   Overcast
7:55 AM -6.0 °F -16.9 °F -9.9 °F 83% 30.15 in 10.0 mi WNW 4.6 mph - N/A   Clear
8:55 AM -8.0 °F -21.0 °F -11.9 °F 83% 30.14 in 6.0 mi WNW 5.8 mph - N/A   Clear
9:55 AM -4.0 °F -16.3 °F -9.9 °F 76% 30.14 in 10.0 mi NW 5.8 mph - N/A   Clear
10:55 AM -0.0 °F -13.0 °F -6.0 °F 76% 30.13 in 10.0 mi NW 6.9 mph - N/A   Clear
11:45 AM 1.4 °F -13.5 °F -4.0 °F 78% 30.01 in 9.0 mi NNW 9.2 mph - N/A   Partly Cloudy
11:55 AM 1.9 °F -10.6 °F -4.0 °F 76% 30.10 in 8.0 mi NW 6.9 mph - N/A   Partly Cloudy
12:55 PM 5.0 °F -6.9 °F -0.9 °F 76% 30.08 in 10.0 mi North 6.9 mph - N/A   Scattered Clouds
1:06 PM 6.8 °F -0.1 °F -0.4 °F 72% 29.97 in 7.0 mi North 3.5 mph - N/A   Mostly Cloudy
1:55 PM 6.1 °F - -0.9 °F 73% 30.04 in 9.0 mi Calm Calm - N/A   Scattered Clouds
2:27 PM 6.8 °F - -0.4 °F 72% 29.92 in 10.0 mi Calm Calm - N/A   Overcast
2:55 PM 8.1 °F - -0.0 °F 70% 30.00 in 9.0 mi Calm Calm - N/A   Overcast
3:31 PM 6.8 °F - -0.4 °F 72% 29.91 in 10.0 mi Calm Calm - N/A   Scattered Clouds
3:55 PM 7.0 °F -1.7 °F -0.0 °F 73% 30.00 in 10.0 mi SE 4.6 mph - N/A   Partly Cloudy
4:55 PM 5.0 °F -4.1 °F -0.9 °F 76% 29.98 in 10.0 mi SE 4.6 mph - N/A   Partly Cloudy
5:55 PM 3.9 °F -8.2 °F -0.9 °F 80% 29.97 in 10.0 mi SSE 6.9 mph - N/A   Mostly Cloudy
6:55 PM 5.0 °F -8.1 °F -0.0 °F 80% 29.96 in 10.0 mi SSE 8.1 mph - N/A   Overcast
7:55 PM 3.0 °F -6.4 °F -2.0 °F 80% 29.95 in 10.0 mi SSE 4.6 mph - N/A   Scattered Clouds
8:55 PM 1.9 °F -5.6 °F -2.0 °F 83% 29.95 in 10.0 mi SSE 3.5 mph - N/A   Clear
9:55 PM 1.0 °F -11.7 °F -2.9 °F 83% 29.94 in 10.0 mi SSE 6.9 mph - N/A   Clear
10:55 PM -0.9 °F -11.0 °F -4.0 °F 87% 29.92 in 10.0 mi SE 4.6 mph - N/A   Clear
11:55 PM -0.0 °F -13.0 °F -4.0 °F 83% 29.91 in 10.0 mi SSE 6.9 mph - N/A   Clear